Regional Weather Roundup
Issued by NWS Spokane, WA

Current Version | Previous Version | Text Only | Print | Product List | Glossary On
Versions: 1 2 3 4 5 6 7 8 9 10 11 12 13 14 15 16 17 18 19 20 21 22 23 24 25 26 27 28 29 30 31 32 33 34 35 36 37 38 39 40 41 42 43 44 45 46 47 48 49 50
000
NZUS01 KOTX 042310
RWROTX
EASTERN WASHINGTON/NORTHERN IDAHO ROUNDUP
NATIONAL WEATHER SERVICE, SPOKANE WA
400 PM PDT MON MAY 04 2015

Note: "fair" indicated few or no clouds below 12,000 feet with no
significant weather and/or obstructions to visibility.

...NORTHEAST WASHINGTON AND NORTHERN IDAHO PANHANDLE...

CITY           SKY/WX    TMP DP  RH WIND       PRES   REMARKS
SPOKANE INTL   MOSUNNY   74  24  15 W8        29.78F
SPOKANE DOWNTO SUNNY     77  27  15 SW8       29.77F
COEUR D ALENE  SUNNY     73  27  17 SE5       29.80F
DEER PARK      SUNNY     72  30  21 SE3       29.79F
SANDPOINT      SUNNY     70  32  24 SE7       29.78F
BONNERS FERRY  FAIR      73  25  16 S6        29.77F

...SOUTHEAST WASHINGTON AND SOUTHERN IDAHO PANHANDLE...

CITY           SKY/WX    TMP DP  RH WIND       PRES   REMARKS
WALLA WALLA    SUNNY     79  29  16 W5        29.76F
PULLMAN/MOSCOW SUNNY     75  31  19 W10       29.81F
LEWISTON       SUNNY     81  29  15 NW5       29.74F
LOWELL           N/A     76  45  33 CALM      29.70F

...COLUMBIA BASIN...

CITY           SKY/WX    TMP DP  RH WIND       PRES   REMARKS
EPHRATA        SUNNY     80  27  14 S16G23    29.73F
MOSES LAKE     SUNNY     79  29  16 SE14      29.74F
TRI CITIES     SUNNY     82  28  14 SW12      29.74F
HERMISTON      SUNNY     81  36  19 W15G21    29.75F
PENDLETON      SUNNY     76  33  21 W15G23    29.77F

...EAST SLOPES CASCADES...

CITY           SKY/WX    TMP DP  RH WIND       PRES   REMARKS
THE DALLES     SUNNY     66  37  34 NW32G44   29.85S
YAKIMA         SUNNY     82  33  17 SW21G29   29.72F
ELLENSBURG     PTSUNNY   72  41  32 NW23G29   29.75S
WENATCHEE      PTSUNNY   80  29  15 SE16      29.70F
OMAK           MOSUNNY   78  28  16 S17G28    29.69F

...SOUTHERN BRITISH COLUMBIA...

CITY           SKY/WX    TMP DP  RH WIND       PRES   REMARKS
PENTICTON      PTSUNNY   73  36  25 S15G28    29.66F
CASTLEGAR      MOSUNNY   77  32  19 SW12      29.71F
CRANBROOK      MOSUNNY   70  25  18 SE6       29.77F

...WESTERN MONTANA...

CITY           SKY/WX    TMP DP  RH WIND       PRES   REMARKS
MISSOULA       SUNNY     76  24  14 N8        29.79F

...NEIGHBORING CITIES...

CITY           SKY/WX    TMP DP  RH WIND       PRES   REMARKS
SEATTLE        MOSUNNY   62  42  47 SW17G23   29.96S
CALGARY        MOSUNNY   70  21  16 E15       29.78F



USA.gov is the U.S. government's official web portal to all federal, state and local government web resources and services.